Date String (YYYY-MM-DD hh:mm:ss) UTC,Instrument flags,absolute air pressure of the measurement (hPa),sample flow rate (lpm),inlet stack bypass flow (lpm),air temperature of the measurement (°C),ambient temperature measured by the external sensor (°C),aerosol sample conditioner tube jacket temperature (°C),OPC LED temperature (°C),internal box temperature (°C),relative humidity of the measurement (%),span deviation,mass concentration of particles derived from Lorenz-Mie calculation of OPC scattering (μg/m³),mass concentration of particles derived from Lorenz-Mie calculation of OPC scattering (μg/m³),mass concentration of particles derived from Lorenz-Mie calculation of OPC scattering (μg/m³)
DateTimeUTC,F1_M11,P_M11,Q1_M11,Q2_M11,T1_M11,T2_M11,T3_M11,T4_M11,T5_M11,U1_M11,ZSPAN_M11,X0_M11,X2_M11,X1_M11
2024-03-10 10:00:00,SystemResetWarning,0828.3,4.98,000.00,018.7,018.9,000.0,027.1,020.9,09.6,0000.0,0007.47,0002.73,0001.74
2024-03-10 10:01:00,SystemResetWarning,0828.3,5.01,000.00,018.7,018.8,000.0,027.1,020.8,09.5,0000.0,0007.10,0002.67,0001.73
2024-03-10 10:02:00,SystemResetWarning,0828.3,5.00,000.00,018.7,018.6,000.0,027.0,020.6,09.4,0000.0,0006.70,0002.67,0001.73
2024-03-10 10:03:00,SystemResetWarning,0828.3,5.00,000.00,018.7,018.5,000.0,027.0,020.5,09.6,0000.0,0007.71,0002.71,0001.74
2024-03-10 10:04:00,SystemResetWarning,0828.3,4.99,000.00,018.7,018.3,000.0,027.0,020.4,09.8,0000.0,0007.83,0002.75,0001.76
2024-03-10 10:05:00,SystemResetWarning,0828.2,5.00,000.00,018.7,018.2,000.0,027.0,020.4,09.7,0000.0,0007.67,0002.75,0001.76
2024-03-10 10:06:00,SystemResetWarning,0828.3,4.99,000.00,018.6,018.1,000.0,027.0,020.3,09.7,0000.0,0007.80,0002.80,0001.75
2024-03-10 10:07:00,SystemResetWarning,0828.3,5.00,000.00,018.6,018.0,000.0,027.0,020.3,09.8,0000.0,0008.04,0002.80,0001.74
2024-03-10 10:08:00,SystemResetWarning,0828.3,5.00,000.00,018.6,017.9,000.0,027.0,020.2,09.5,0000.0,0008.11,0002.80,0001.72
2024-03-10 10:09:00,SystemResetWarning,0828.2,5.01,000.00,018.5,017.8,000.0,027.0,020.2,09.6,0000.0,0007.82,0002.83,0001.72
2024-03-10 10:10:00,SystemResetWarning,0828.3,5.01,000.00,018.5,017.8,000.0,027.0,020.2,09.8,0000.0,0007.83,0002.82,0001.71
2024-03-10 10:11:00,SystemResetWarning,0828.3,5.00,000.00,018.5,017.7,000.0,027.0,020.1,09.9,0000.0,0007.70,0002.75,0001.69
2024-03-10 10:12:00,SystemResetWarning,0828.2,5.00,000.00,018.5,017.7,000.0,027.0,020.1,10.0,0000.0,0007.43,0002.75,0001.68
2024-03-10 10:13:00,SystemResetWarning,0828.2,5.00,000.00,018.4,017.7,000.0,027.0,020.1,10.2,0000.0,0007.34,0002.76,0001.68
2024-03-10 10:14:00,SystemResetWarning,0828.2,4.99,000.00,018.4,017.6,000.0,027.0,020.1,10.3,0000.0,0006.62,0002.74,0001.68
2024-03-10 10:15:00,SystemResetWarning,0828.2,5.00,000.00,018.4,017.6,000.0,027.0,020.1,10.3,0000.0,0005.99,0002.70,0001.66
2024-03-10 10:16:00,SystemResetWarning,0828.2,5.00,000.00,018.4,017.6,000.0,026.9,020.0,10.3,0000.0,0006.00,0002.72,0001.67
2024-03-10 10:17:00,SystemResetWarning,0828.2,5.01,000.00,018.4,017.6,000.0,026.9,020.0,10.3,0000.0,0005.79,0002.68,0001.70
2024-03-10 10:18:00,SystemResetWarning,0828.1,5.00,000.00,018.3,017.6,000.0,026.9,020.0,10.3,0000.0,0006.63,0002.71,0001.72
2024-03-10 10:19:00,SystemResetWarning,0828.2,5.00,000.00,018.3,017.5,000.0,026.9,020.0,10.3,0000.0,0006.47,0002.75,0001.75
2024-03-10 10:20:00,SystemResetWarning,0828.1,4.99,000.00,018.3,017.5,000.0,026.9,020.0,10.3,0000.0,0006.64,0002.74,0001.76
2024-03-10 10:21:00,SystemResetWarning,0828.1,5.00,000.00,018.3,017.5,000.0,026.9,020.0,10.3,0000.0,0007.46,0002.80,0001.80
2024-03-10 10:22:00,SystemResetWarning,0828.2,5.00,000.00,018.3,017.4,000.0,026.9,020.0,10.3,0000.0,0007.75,0002.86,0001.84
2024-03-10 10:23:00,SystemResetWarning,0828.2,5.00,000.00,018.3,017.4,000.0,026.9,020.0,10.2,0000.0,0007.99,0002.93,0001.88
2024-03-10 10:24:00,SystemResetWarning,0828.1,5.00,000.00,018.3,017.3,000.0,026.9,020.0,10.2,0000.0,0008.14,0002.96,0001.91
2024-03-10 10:25:00,SystemResetWarning,0828.1,5.01,000.00,018.3,017.3,000.0,026.9,020.0,10.3,0000.0,0008.00,0002.98,0001.93
2024-03-10 10:26:00,SystemResetWarning,0828.2,5.01,000.00,018.3,017.3,000.0,026.9,020.0,10.3,0000.0,0008.03,0003.03,0001.97
2024-03-10 10:27:00,SystemResetWarning,0828.2,4.99,000.00,018.3,017.3,000.0,026.9,020.0,10.2,0000.0,0008.20,0003.05,0001.98
2024-03-10 10:28:00,SystemResetWarning,0828.1,5.00,000.00,018.3,017.3,000.0,026.9,020.0,10.4,0000.0,0008.21,0003.05,0001.99
2024-03-10 10:29:00,SystemResetWarning,0828.1,5.00,000.00,018.3,017.2,000.0,026.9,020.0,10.5,0000.0,0007.52,0003.06,0002.02
2024-03-10 10:30:00,SystemResetWarning,0828.2,5.00,000.00,018.3,017.3,000.0,026.9,020.0,10.5,0000.0,0007.42,0003.03,0002.04
2024-03-10 10:31:00,SystemResetWarning,0828.3,5.01,000.00,018.3,017.2,000.0,026.9,020.0,10.6,0000.0,0007.62,0003.04,0002.07
2024-03-10 10:32:00,SystemResetWarning,0828.3,5.00,000.00,018.2,017.2,000.0,026.9,020.0,10.5,0000.0,0007.68,0003.03,0002.09
2024-03-10 10:33:00,SystemResetWarning,0828.3,5.00,000.00,018.2,017.1,000.0,027.0,020.0,10.4,0000.0,0007.87,0003.07,0002.10
2024-03-10 10:34:00,SystemResetWarning,0828.3,5.00,000.00,018.2,017.1,000.0,027.0,020.0,10.5,0000.0,0007.69,0003.05,0002.12
2024-03-10 10:35:00,SystemResetWarning,0828.4,5.00,000.00,018.3,017.6,000.0,027.1,020.2,10.5,0000.0,0007.54,0003.03,0002.13
2024-03-10 10:36:00,SystemResetWarning,0828.3,5.00,000.00,018.5,018.5,000.0,027.1,020.7,10.3,0000.0,0007.56,0003.07,0002.14
2024-03-10 10:37:00,SystemResetWarning,0828.3,4.99,000.00,018.7,019.1,000.0,027.1,021.0,10.2,0000.0,0007.78,0003.12,0002.16
2024-03-10 10:38:00,SystemResetWarning,0828.3,5.00,000.00,018.8,018.9,000.0,027.1,020.9,10.1,0000.0,0008.24,0003.12,0002.18
2024-03-10 10:39:00,SystemResetWarning,0828.4,5.00,000.00,018.8,018.7,000.0,027.1,020.7,10.2,0000.0,0008.33,0003.12,0002.19
2024-03-10 10:40:00,SystemResetWarning,0828.3,5.00,000.00,018.7,018.5,000.0,027.1,020.5,10.1,0000.0,0008.28,0003.10,0002.19
2024-03-10 10:41:00,SystemResetWarning,0828.3,4.99,000.00,018.7,018.2,000.0,027.1,020.4,10.2,0000.0,0008.37,0003.13,0002.20
2024-03-10 10:42:00,SystemResetWarning,0828.3,5.00,000.00,018.6,018.0,000.0,027.0,020.3,10.3,0000.0,0008.12,0003.15,0002.21
2024-03-10 10:43:00,SystemResetWarning,0828.3,4.99,000.00,018.6,017.9,000.0,027.0,020.2,10.4,0000.0,0007.51,0003.16,0002.21
2024-03-10 10:44:00,SystemResetWarning,0828.3,5.02,000.00,018.5,017.8,000.0,027.0,020.1,10.4,0000.0,0007.05,0003.14,0002.21
2024-03-10 10:45:00,SystemResetWarning,0828.3,5.01,000.00,018.5,017.7,000.0,027.0,020.1,10.4,0000.0,0007.82,0003.16,0002.21
2024-03-10 10:46:00,SystemResetWarning,0828.3,4.99,000.00,018.4,017.6,000.0,027.0,020.0,10.4,0000.0,0008.48,0003.18,0002.20
2024-03-10 10:47:00,SystemResetWarning,0828.3,4.99,000.00,018.4,017.5,000.0,027.0,020.0,10.4,0000.0,0008.51,0003.19,0002.19
2024-03-10 10:48:00,SystemResetWarning,0828.3,5.01,000.00,018.4,017.5,000.0,027.0,020.0,10.5,0000.0,0008.32,0003.17,0002.19
2024-03-10 10:49:00,SystemResetWarning,0828.3,5.01,000.00,018.4,017.4,000.0,027.0,020.0,10.5,0000.0,0007.77,0003.16,0002.18
2024-03-10 10:50:00,SystemResetWarning,0828.3,4.99,000.00,018.3,017.4,000.0,027.0,020.0,10.5,0000.0,0007.72,0003.17,0002.18
2024-03-10 10:51:00,SystemResetWarning,0828.3,4.99,000.00,018.3,017.3,000.0,027.0,020.0,10.5,0000.0,0007.92,0003.20,0002.19
2024-03-10 10:52:00,SystemResetWarning,0828.3,5.01,000.00,018.3,017.3,000.0,027.0,020.0,10.5,0000.0,0009.19,0003.18,0002.19
2024-03-10 10:53:00,SystemResetWarning,0828.4,5.01,000.00,018.3,017.3,000.0,027.0,020.0,10.5,0000.0,0009.19,0003.16,0002.18
2024-03-10 10:54:00,SystemResetWarning,0828.4,4.99,000.00,018.3,017.3,000.0,027.0,020.0,10.5,0000.0,0009.16,0003.13,0002.15
2024-03-10 10:55:00,SystemResetWarning,0828.3,4.99,000.00,018.3,017.4,000.0,026.9,020.0,10.5,0000.0,0009.29,0003.12,0002.13
2024-03-10 10:56:00,SystemResetWarning,0828.3,5.00,000.00,018.3,017.4,000.0,026.9,020.0,10.5,0000.0,0008.71,0003.08,0002.12
2024-03-10 10:57:00,SystemResetWarning,0828.3,5.01,000.00,018.3,017.4,000.0,026.9,020.0,10.5,0000.0,0008.67,0003.03,0002.11
2024-03-10 10:58:00,SystemResetWarning,0828.3,5.00,000.00,018.3,017.3,000.0,026.9,020.0,10.4,0000.0,0008.92,0003.01,0002.11
2024-03-10 10:59:00,SystemResetWarning,0828.3,5.01,000.00,018.3,017.3,000.0,026.9,020.0,10.5,0000.0,0008.76,0002.95,0002.10
